Content
SEND FEEDBACK

Daily
Averages
Monthly
Summary
United Kingdom

LONDON, ENGLAND


Home > Europe > United Kingdom > England
Elevation: 203 feet     Latitude: 51 09N     Longitude: 000 11W

WEATHER
 
SELECT A DAY
Number of Records: 298,815;   Date Range: 7/1/96 - 11/26/14
 
SHARE

PRINT THIS DATA

[ ← Previous Day ]
WEATHER ALMANAC - JUNE 21, 2013
[ Next Day → ]
[ °C ]   °F
Weather ElementAverageHighLow
Temperature60.3 °F68 °F (3:50 pm)55.4 °F (12:50 am)
Dewpoint56.2 °F59 °F (3:50 pm)53.6 °F (12:50 am)
Humidity86.8 %100 % (3:20 am)68 % (4:50 pm)
Barometer29.85 in29.92 in (10:20 pm)29.80 in (12:50 am)
Wind Speed7.8 mph12.7 mph (5:50 pm)
Weather ElementAverage
Visibility5.1 mi
Wind DirectionSSW (210.4 °)

Weather ElementTotal
Precipitation---
Heating Degree Days3.3 (Base 65)
Growing Degree Days11.7 (Base 50)
Averaged from 47 records on June 21, 2013
WEATHER CONDITIONS BREAKOUT
WIND DIRECTION BREAKOUT
WEATHER BY HOUR - JUNE 21, 2013
[ °C ]   °F
Local TimeTemperatureDewpointHumidityBarometerVisibilityWind DirectionWind SpeedGust SpeedPrecipitationEventsConditions
12:50 AM55.4 °F53.6 °F94 %29.80 in5.6 miVariable2.3 mph
1:20 AM57.2 °F55.4 °F94 %29.83 in5.6 miSSW (210°)5.8 mph
1:50 AM57.2 °F55.4 °F94 %29.83 in5.6 miSSW (210°)5.8 mph
2:20 AM57.2 °F53.6 °F88 %29.83 in5.0 miSW (220°)3.5 mphScattered Clouds
2:50 AM57.2 °F53.6 °F88 %29.83 in3.7 miSW (220°)5.8 mphMostly Cloudy
3:20 AM55.4 °F55.4 °F100 %29.83 in2.5 miSW (220°)5.8 mphHaze
3:50 AM55.4 °F55.4 °F100 %29.80 in1.6 miSW (220°)8.1 mphMostly Cloudy
4:20 AM55.4 °F53.6 °F94 %29.80 in4.3 miSW (220°)8.1 mphMostly Cloudy
4:50 AM55.4 °F55.4 °F100 %29.80 in1.4 miSW (230°)8.1 mphOvercast
5:20 AM55.4 °F55.4 °F100 %29.80 in2.5 miSW (220°)5.8 mphOvercast
5:50 AM55.4 °F55.4 °F100 %29.80 inVariable3.5 mphOvercast
6:20 AM55.4 °F55.4 °F100 %29.80 in1.6 miSSW (210°)5.8 mphOvercast
6:50 AM55.4 °F55.4 °F100 %29.80 inSSW (210°)4.6 mphMostly Cloudy
7:20 AM57.2 °F55.4 °F94 %29.80 in1.7 miSSW (210°)6.9 mphMostly Cloudy
7:50 AM57.2 °F55.4 °F94 %29.80 inSW (230°)5.8 mphOvercast
8:20 AM57.2 °F55.4 °F94 %29.80 inSW (220°)6.9 mphMostly Cloudy
8:50 AM57.2 °F57.2 °F100 %29.83 in3.1 miWSW (240°)4.6 mphHaze
9:20 AM59.0 °F57.2 °F94 %29.83 in4.3 miSW (230°)5.8 mphMostly Cloudy
9:50 AM59.0 °F57.2 °F94 %29.83 in5.0 miWSW (240°)6.9 mphMostly Cloudy
10:20 AM60.8 °F57.2 °F88 %29.83 in5.6 miWSW (250°)8.1 mphMostly Cloudy
10:50 AM60.8 °F57.2 °F88 %29.83 in5.6 miWSW (240°)6.9 mphMostly Cloudy
11:20 AM60.8 °F57.2 °F88 %29.83 in5.6 miWSW (240°)9.2 mphMostly Cloudy
11:50 AM60.8 °F57.2 °F88 %29.83 in4.3 miWSW (240°)9.2 mphMostly Cloudy
12:20 PM60.8 °F57.2 °F88 %29.86 in4.3 miSW (230°)8.1 mphMostly Cloudy
12:50 PM62.6 °F57.2 °F82 %29.86 in5.6 miWSW (250°)8.1 mphMostly Cloudy
1:20 PM62.6 °F57.2 °F82 %29.86 in6.2 miSW (230°)9.2 mphMostly Cloudy
1:50 PM62.6 °F57.2 °F82 %29.86 in6.2 miSW (220°)8.1 mphMostly Cloudy
2:20 PM62.6 °F57.2 °F82 %29.86 in6.2 miSW (220°)9.2 mphMostly Cloudy
2:50 PM64.4 °F57.2 °F77 %29.86 in6.2 miSW (220°)6.9 mphMostly Cloudy
3:20 PM66.2 °F57.2 °F73 %29.89 in6.2 miSSW (210°)11.5 mphMostly Cloudy
3:50 PM68.0 °F59.0 °F73 %29.89 in6.2 miSSW (210°)11.5 mphScattered Clouds
4:20 PM68.0 °F59.0 °F73 %29.89 in6.2 miSSW (200°)11.5 mphScattered Clouds
4:50 PM68.0 °F57.2 °F68 %29.89 in6.2 miSSW (200°)11.5 mphScattered Clouds
5:20 PM66.2 °F57.2 °F73 %29.89 in6.2 miSSW (210°)10.4 mphPartly Cloudy
5:50 PM66.2 °F57.2 °F73 %29.89 in6.2 miSSW (210°)12.7 mphScattered Clouds
6:20 PM66.2 °F57.2 °F73 %29.86 in6.2 miSW (220°)10.4 mphPartly Cloudy
6:50 PM66.2 °F57.2 °F73 %29.86 in6.2 miSW (220°)11.5 mphPartly Cloudy
7:20 PM64.4 °F57.2 °F77 %29.89 in6.2 miSSW (210°)10.4 mphPartly Cloudy
7:50 PM64.4 °F57.2 °F77 %29.89 in6.2 miSW (220°)8.1 mphPartly Cloudy
8:20 PM62.6 °F57.2 °F82 %29.89 in6.2 miSSW (210°)8.1 mphPartly Cloudy
8:50 PM62.6 °F57.2 °F82 %29.89 in6.2 miSSW (200°)8.1 mphPartly Cloudy
9:20 PM60.8 °F57.2 °F88 %29.89 in6.2 miSSW (210°)8.1 mphPartly Cloudy
9:50 PM60.8 °F55.4 °F82 %29.89 in6.2 miSSW (210°)8.1 mphPartly Cloudy
10:20 PM59.0 °F55.4 °F88 %29.92 in6.2 miSSW (210°)6.9 mphScattered Clouds
10:50 PM59.0 °F53.6 °F82 %29.92 in6.2 miSW (220°)8.1 mphPartly Cloudy
11:20 PM57.2 °F53.6 °F88 %29.92 in6.2 miSSW (210°)8.1 mphPartly Cloudy
11:50 PM57.2 °F53.6 °F88 %29.92 inSSW (210°)8.1 mphClear
Hourly data recorded from EGKK, located miles away from London, England







STORIES FROM OUR PARTNERS